Location: Krasnoyarskiy Pitomnik
(51.1333°N, 71.6167°E)
Time: 10:16:28
(UTC+00:00)

IDEFIX/ARIANE 42P - Pass Details

Date: 22 October 2021
Orbit: 784 x 803 km, 98.4° (Epoch: 06 December)

Event Time Altitude Azimuth Distance (km) Brightness Sun altitude
Rises 22:52:21 0° 9° (N) 3,319 6.1 -28.3°
Reaches altitude 10° 22:54:50 10° 2° (N) 2,382 5.2 -27.9°
Enters shadow 22:57:22 25° 342° (NNW) 1,558 4.0 -27.6°
